FW8347 Weather Reports


Display with metric or nautical units.
time (UTC)temp
F
wind
direction
speed
MPH
gust
MPH
rain 1hr
in
rain 24hr
in
rain mn
in
humidity
%
barometer
mb
20260505034547 64 201 11.0 25.0 0.00 0.00 0.00 52 1002.3
20260505033046 64 196 6.0 11.0 0.00 0.00 0.00 52 1002.2
20260505031549 60 204 5.0 9.0 0.00 0.00 0.00 59 1002.4
20260505030046 57 187 4.0 7.0 0.00 0.00 0.00 65 1002.5
20260505024548 56 149 3.0 5.0 0.00 0.00 0.00 69 1002.3
20260505023048 55 149 4.0 6.0 0.00 0.00 0.00 70 1002.6
20260505021547 55 149 3.0 6.0 0.00 0.00 0.00 71 1002.8
20260505020043 55 149 3.0 6.0 0.00 0.00 0.00 70 1003.0
20260505014545 56 149 3.0 5.0 0.00 0.00 0.00 69 1003.0
20260505013041 55 149 2.0 5.0 0.00 0.00 0.00 68 1002.8
20260505011546 55 149 2.0 5.0 0.00 0.00 0.00 71 1002.7
20260505010047 56 149 3.0 5.0 0.00 0.00 0.00 69 1002.7
20260505004545 56 149 3.0 6.0 0.00 0.00 0.00 65 1002.6
20260505003042 57 149 2.0 5.0 0.00 0.00 0.00 61 1002.7
20260505001549 59 65 2.0 4.0 0.00 0.00 0.00 60 1002.6
20260505000054 60 65 2.0 4.0 0.00 0.00 0.00 53 1002.5
20260504234552 61 65 2.0 4.0 0.00 0.00 0.00 54 1002.5
20260504233045 63 65 1.0 5.0 0.00 0.00 0.00 51 1002.5
20260504231555 68 43 2.0 7.0 0.00 0.00 0.00 43 1002.4
20260504230041 73 227 4.0 11.0 0.00 0.00 0.00 37 1002.4
20260504224540 74 234 6.0 13.0 0.00 0.00 0.00 35 1002.2
20260504223046 74 242 9.0 16.0 0.00 0.00 0.00 36 1002.2
20260504221551 74 232 8.0 17.0 0.00 0.00 0.00 36 1002.3
20260504220045 74 241 11.0 16.0 0.00 0.00 0.00 36 1002.5
20260504214548 74 237 12.0 21.0 0.00 0.00 0.00 38 1002.6
20260504213047 73 255 8.0 19.0 0.00 0.00 0.00 38 1002.7
20260504211550 74 215 9.0 19.0 0.00 0.00 0.00 38 1002.5
20260504210105 74 212 10.0 18.0 0.00 0.00 0.00 39 1002.8
20260504204553 73 253 10.0 19.0 0.00 0.00 0.00 39 1002.8
20260504203047 73 264 10.0 18.0 0.00 0.00 0.00 38 1002.9
20260504201550 71 213 10.0 19.0 0.00 0.00 0.00 44 1003.2
20260504200046 72 234 10.0 19.0 0.00 0.00 0.00 41 1003.3
20260504194602 72 237 12.0 21.0 0.00 0.00 0.00 42 1003.7
20260504193046 72 226 9.0 19.0 0.00 0.00 0.00 44 1003.9
20260504191549 70 236 7.0 18.0 0.00 0.00 0.00 46 1004.0
20260504190055 69 266 13.0 24.0 0.00 0.00 0.00 48 1004.0
20260504184555 70 261 16.0 25.0 0.00 0.00 0.00 48 1004.3
20260504183044 69 271 14.0 27.0 0.00 0.00 0.00 51 1004.4
20260504181550 69 280 11.0 23.0 0.00 0.00 0.00 49 1004.4
20260504180114 69 241 15.0 25.0 0.00 0.00 0.00 48 1004.6
20260504174549 69 273 12.0 18.0 0.00 0.00 0.00 48 1004.8
20260504173057 69 238 10.0 25.0 0.00 0.00 0.00 50 1004.9
20260504171547 68 251 12.0 18.0 0.00 0.00 0.00 49 1004.9
20260504150108 62 198 7.0 20.0 0.00 0.00 0.00 57 1005.9
20260504120110 54 230 11.0 20.0 0.00 0.00 0.00 59 1006.7
20260504081546 52 249 8.0 18.0 0.00 0.00 0.00 59 1006.7
20260504050108 54 225 7.0 12.0 0.00 0.00 0.00 60 1008.1
20260504044545 54 234 6.0 11.0 0.00 0.00 0.00 61 1008.2
20260504043047 53 227 3.0 7.0 0.00 0.00 0.00 62 1008.2
20260504041546 52 228 3.0 8.0 0.00 0.00 0.00 64 1008.3
20260504040048 51 242 1.0 4.0 0.00 0.00 0.00 68 1008.3